GFSNGP_sfc_30mbdewp_231.txt.gz
Dewpoint
26 27 26 25 28 33 33 32 30 29 28 29 29 29 32 34 36 37 39 40 39 38 39 39 41 41 41 40 39 39 40 41 43 45 45 45 45 44 43 42 41 41 40 39
20 20 16 23 23 27 27 34 34 32 31 31 32 32 31 33 34 36 38 39 39 37 37 37 38 39 39 38 39 40 41 42 43 44 44 44 43 43 42 41 40 39 38 37
15 14 21 18 21 21 30 33 37 34 33 34 32 32 32 31 34 34 36 38 38 37 35 35 37 37 37 38 41 41 42 43 44 43 43 43 42 42 40 39 39 38 38 36
16 15 9 11 17 27 30 30 32 34 34 32 32 33 34 34 34 34 35 37 38 37 35 35 34 35 37 39 40 41 42 42 42 42 42 42 41 40 39 39 38 38 37 36
15 12 11 12 11 13 18 23 24 31 32 35 37 37 35 33 33 34 35 36 37 38 36 34 33 34 38 40 40 41 41 42 42 41 41 40 39 39 39 38 38 37 36 35
16 12 8 7 8 13 11 9 14 22 27 24 30 30 35 35 34 35 35 35 36 37 36 33 33 36 38 38 39 40 41 41 41 41 40 39 39 39 38 38 38 36 36 35
16 14 14 13 13 12 12 11 16 17 19 34 36 37 37 37 35 36 35 34 35 35 35 33 33 36 36 38 38 40 41 40 40 39 39 39 39 38 38 38 37 37 35 35
18 15 12 14 14 12 12 14 16 18 24 34 37 37 38 39 38 37 35 34 33 33 33 32 34 35 35 36 39 40 40 39 38 39 38 39 38 38 37 36 36 35 34 34
16 15 17 17 16 20 16 17 34 38 38 37 36 34 35 37 37 39 36 33 32 32 31 32 34 35 35 36 39 39 38 38 37 37 37 38 38 37 36 36 34 33 33 33
19 19 22 22 23 33 33 30 27 25 32 36 35 34 35 37 37 38 37 32 31 30 30 32 34 34 35 39 38 38 37 37 37 37 37 38 37 37 36 35 34 33 33 33
18 19 17 18 19 20 22 23 25 29 33 33 33 34 37 38 39 38 37 33 29 30 31 33 34 34 37 38 38 37 37 36 36 37 37 36 37 37 36 36 36 35 34 35
16 17 17 17 19 23 27 27 26 27 31 32 36 38 39 40 39 39 37 31 29 30 31 33 34 35 38 38 37 36 35 36 36 36 36 36 35 35 36 36 35 35 36 35
19 19 19 21 23 23 24 26 27 29 30 33 34 40 42 39 38 39 36 30 30 30 32 33 34 36 37 38 37 35 34 35 36 37 36 35 34 34 32 33 34 35 35 35
25 25 25 25 25 25 25 26 30 33 34 36 39 41 39 38 37 37 33 31 31 31 34 34 36 37 38 38 35 34 35 35 35 36 36 36 35 35 34 33 32 33 34 35
22 23 24 26 26 27 28 29 27 30 32 37 37 36 33 32 32 32 33 33 34 35 35 35 35 37 38 36 36 35 34 34 35 35 35 35 34 34 33 34 33 33 32 32
22 23 23 23 23 24 24 28 29 29 34 35 33 33 32 31 30 31 33 33 33 34 35 36 36 37 37 36 35 35 35 34 34 34 33 33 33 33 32 32 31 31 30 31
25 25 25 25 25 26 28 28 28 32 31 31 32 32 32 32 32 32 32 33 34 34 35 35 34 35 36 35 35 35 34 34 34 34 33 33 33 32 33 32 32 31 31 32
30 28 27 27 28 29 29 29 30 31 29 30 31 31 31 31 30 30 31 32 32 31 32 33 33 33 33 34 34 34 33 33 33 33 33 33 32 33 33 32 32 32 31 30
32 32 30 28 31 31 32 31 31 30 30 30 30 29 29 29 29 30 31 30 30 29 30 31 31 32 32 32 32 32 32 32 32 32 33 32 32 32 32 31 31 31 32 31
35 35 32 33 34 34 33 32 32 32 31 29 29 29 29 30 31 31 30 29 29 29 30 31 32 31 31 30 31 31 31 30 30 31 31 30 31 31 31 30 31 31 31 31
30 36 34 34 32 32 32 32 31 30 30 31 30 30 30 31 31 32 31 29 29 31 31 30 30 29 29 29 30 30 30 31 31 31 30 31 31 31 31 32 32 31 31 31
28 29 30 30 29 29 30 30 30 30 29 29 29 29 28 27 28 29 31 28 28 29 29 29 29 29 29 29 30 30 30 30 30 30 30 31 31 31 31 32 32 32 32 32
27 27 26 25 26 26 28 29 28 29 28 28 28 28 27 28 28 27 25 28 30 30 30 30 30 29 29 31 31 31 31 31 31 31 31 32 32 32 32 32 32 32 32 32
27 27 27 28 28 26 23 24 25 26 26 26 27 27 27 27 27 28 29 30 30 30 30 31 30 30 32 32 31 31 31 32 32 32 32 32 32 32 32 32 32 32 32 31
27 27 27 26 25 24 25 25 25 25 26 26 26 27 28 29 28 28 29 29 29 29 29 30 30 30 30 30 31 31 32 32 32 32 32 32 32 32 32 31 31 32 31 31
25 25 25 26 26 26 26 26 24 25 25 25 25 26 27 28 28 29 29 29 28 27 29 29 29 30 30 30 31 30 31 31 31 31 31 31 31 31 31 32 31 31 31 30
26 26 25 25 25 26 26 25 25 25 25 25 25 26 27 27 28 28 28 28 28 29 30 30 30 30 30 29 30 30 31 31 31 31 31 31 31 31 31 31 31 31 30 30

GFSNGP_sfc_30mbdewp_237.txt.gz
Dewpoint
25 25 23 23 22 26 26 27 25 30 29 27 28 30 29 34 34 36 37 37 38 41 44 45 48 51 57 57 57 56 56 55 54 54 54 54 53 52 50 49 47 46 46 45
19 17 17 17 17 17 18 25 29 27 28 30 31 32 31 31 32 32 30 36 39 39 42 43 46 50 54 55 55 55 54 53 52 53 52 52 51 50 48 47 46 46 45 44
14 14 14 13 15 16 16 16 21 23 25 29 30 30 31 35 38 37 36 33 38 39 39 41 43 47 51 54 53 53 52 50 49 50 49 50 48 48 47 47 46 45 44 43
18 17 10 10 10 11 12 14 17 17 20 24 27 27 27 28 30 36 37 36 34 38 40 40 41 44 49 51 52 51 49 48 48 48 48 48 47 47 47 46 45 45 43 40
16 13 12 10 10 8 8 10 12 13 14 19 22 22 25 24 23 28 37 37 35 35 39 40 40 43 47 49 49 48 47 46 47 47 47 46 45 46 46 46 45 43 41 39
16 13 8 6 5 7 9 7 9 9 12 15 14 11 14 16 17 26 30 36 36 36 36 37 40 42 46 47 47 46 46 46 46 46 45 45 46 46 46 45 42 40 40 39
21 16 13 11 11 10 6 8 11 12 13 14 13 11 12 13 14 31 34 34 35 36 36 36 40 41 44 47 46 46 46 46 45 46 47 46 46 46 44 42 40 40 39 39
21 19 16 14 12 10 12 12 11 12 13 16 16 15 12 16 21 22 25 29 29 30 34 35 39 40 42 45 46 45 45 44 45 46 46 46 45 44 42 41 40 39 39 38
17 18 17 16 14 15 13 13 13 14 14 14 15 15 18 19 18 18 28 29 31 32 34 36 37 39 39 42 45 45 44 44 45 45 45 44 43 42 41 40 39 39 38 38
18 17 15 15 15 16 16 16 16 15 14 14 17 20 23 28 30 31 32 32 31 30 33 37 36 38 38 41 44 45 44 45 45 43 43 42 42 41 41 40 39 38 38 38
20 20 19 18 18 17 17 17 16 16 16 16 17 17 20 22 21 23 25 25 29 29 30 35 38 37 38 39 44 44 44 44 43 42 42 41 41 41 40 40 40 38 38 37
24 21 21 19 18 17 17 17 17 17 16 16 16 16 18 19 19 21 24 27 29 29 31 32 37 39 38 38 43 43 43 43 43 41 41 41 40 40 39 39 38 38 38 37
20 18 19 20 20 19 19 19 18 18 18 17 18 19 21 22 22 22 23 26 27 28 31 33 33 38 38 38 42 43 43 43 41 41 40 40 38 37 34 36 37 37 38 37
18 19 19 20 19 19 20 20 20 19 19 19 18 19 20 21 23 24 27 29 30 30 34 37 37 42 39 39 42 42 43 41 41 41 40 38 37 36 35 34 33 34 36 36
17 19 20 20 19 19 19 19 19 19 20 19 20 21 22 21 21 24 28 30 40 42 41 42 43 43 41 41 42 42 43 41 40 39 38 37 37 36 35 35 35 33 33 34
23 23 23 23 23 23 22 21 20 19 19 20 20 21 22 23 23 23 24 25 34 35 38 43 43 43 43 43 43 43 41 39 39 38 37 36 36 35 35 35 35 34 33 33
24 26 26 26 27 27 27 27 25 23 22 23 23 23 23 25 26 27 31 36 38 39 39 43 43 43 43 43 42 42 39 37 37 36 35 35 35 35 36 36 35 34 35 35
26 26 27 27 28 30 30 29 28 29 28 26 27 28 32 34 33 37 38 37 37 38 39 41 42 42 42 42 42 40 38 37 36 35 35 35 35 36 36 36 35 35 35 34
28 28 28 27 28 31 32 32 32 31 33 33 35 34 35 36 37 37 37 35 35 36 38 41 40 40 40 39 39 37 37 36 35 35 36 36 36 37 36 36 35 35 34 33
28 27 26 27 29 31 33 36 35 35 36 35 35 34 33 34 34 34 34 34 35 37 37 38 38 39 38 37 37 37 36 36 36 36 36 36 36 36 35 35 35 35 34 33
28 27 26 28 29 32 33 37 36 35 34 33 32 32 32 32 32 32 31 31 32 36 36 37 38 37 37 37 37 37 37 36 35 34 35 35 35 35 35 35 35 35 34 34
30 29 29 28 29 30 31 31 32 31 31 31 32 31 31 30 30 30 31 30 31 33 35 35 36 37 37 37 36 35 35 34 34 34 34 34 34 34 34 35 34 34 34 33
30 29 29 28 28 29 29 29 30 30 30 30 31 31 30 30 31 29 27 30 31 31 31 32 33 34 34 34 33 32 33 33 34 34 33 34 34 34 34 33 33 33 32 33
30 29 29 30 30 29 27 29 30 30 30 30 30 31 30 29 29 30 30 31 31 31 31 32 32 33 33 33 33 33 33 33 33 33 33 33 33 33 33 32 32 32 33 33
30 30 29 29 29 29 30 30 30 30 29 29 30 30 30 31 29 30 30 30 31 31 31 31 32 32 32 32 32 32 32 32 32 33 32 32 32 32 32 32 32 32 33 33
30 29 30 30 30 30 30 30 28 29 29 28 29 30 30 31 31 31 31 31 31 31 31 31 31 31 31 32 32 32 32 32 32 32 32 32 32 32 32 32 32 32 32 32
31 30 30 29 29 28 28 29 28 28 29 29 28 29 30 30 30 30 30 30 30 31 31 31 32 32 32 32 32 32 32 32 33 33 33 33 33 33 33 33 33 33 33 32

GFSNGP_sfc_30mbdewp_240.txt.gz
Dewpoint
22 23 25 26 28 29 27 28 27 33 31 30 33 39 36 36 36 36 36 37 38 41 45 46 50 51 59 61 61 62 62 61 61 60 60 60 59 58 57 55 53 51 48 47
21 20 18 19 22 22 24 24 27 27 27 29 31 41 40 35 34 37 38 37 37 38 44 45 47 51 58 58 59 59 58 58 58 58 58 57 57 55 53 52 49 48 47 46
15 19 20 19 19 17 17 19 19 20 25 27 26 37 39 36 30 31 32 37 38 39 41 44 46 49 57 57 57 57 57 56 56 56 56 55 54 52 51 49 48 47 46 45
19 19 13 12 12 14 17 18 18 17 18 19 20 23 27 29 27 27 26 32 38 40 40 41 44 48 52 56 55 55 55 54 55 55 54 53 52 50 49 48 47 46 45 42
19 13 13 12 12 11 9 12 13 15 15 14 17 19 22 24 25 28 26 26 33 39 41 41 41 45 50 54 54 54 53 52 53 53 53 51 50 49 48 47 46 45 43 38
20 15 9 7 7 12 12 11 12 10 15 16 18 19 20 17 16 17 17 26 27 34 38 42 42 43 47 51 52 52 51 50 51 51 50 49 48 48 47 47 45 43 40 37
21 18 16 13 11 11 9 10 13 14 15 16 18 19 20 22 18 16 17 17 33 33 36 38 42 42 45 50 50 51 49 50 50 50 49 48 48 48 47 45 43 41 38 36
20 17 16 17 13 12 15 17 16 16 17 17 18 19 18 17 17 16 17 21 26 26 29 33 35 42 43 48 49 49 49 48 48 48 48 48 48 47 45 43 41 39 37 35
18 17 20 20 17 19 19 18 19 19 18 18 17 15 16 17 18 27 18 19 20 25 29 32 34 37 41 44 48 48 48 47 47 47 47 48 47 45 43 41 39 38 36 36
26 23 20 20 20 19 19 20 21 21 19 18 17 17 17 17 20 21 30 31 34 29 32 33 33 38 41 43 48 47 47 46 46 47 47 47 45 43 41 40 38 37 37 36
24 26 25 24 22 21 21 21 21 20 19 19 18 17 17 17 18 18 24 24 25 27 28 29 31 32 41 42 46 46 46 46 46 46 46 45 43 42 41 40 39 37 37 37
23 23 23 25 29 25 23 22 24 24 22 19 17 17 18 18 19 18 18 20 21 21 24 28 31 32 34 41 44 46 45 45 46 45 44 43 41 41 40 40 39 38 38 38
23 23 24 24 23 22 21 21 21 21 21 21 21 21 21 19 20 21 24 22 23 24 26 30 31 31 33 42 42 47 45 45 44 43 42 42 41 39 37 37 38 38 38 37
19 19 19 18 20 21 21 20 20 20 20 21 21 21 21 21 21 22 22 24 26 27 26 29 35 39 44 42 43 46 46 44 43 43 42 41 40 39 38 36 34 34 36 35
21 22 22 23 22 22 21 22 21 20 20 21 21 22 22 22 22 22 23 26 30 29 30 33 36 36 40 41 38 43 46 44 43 43 41 40 39 37 36 36 35 34 33 34
23 23 22 24 26 25 24 24 25 26 27 27 25 22 23 22 22 23 25 23 24 28 34 35 35 36 40 42 40 41 46 43 42 42 40 39 37 36 35 35 34 33 33 33
24 25 26 26 27 27 26 27 27 28 28 28 29 30 30 25 25 25 26 27 27 27 29 36 38 41 41 41 42 43 45 42 41 41 39 37 36 35 34 34 33 34 33 34
27 27 27 28 28 28 28 28 27 28 29 30 31 32 31 33 30 30 31 34 36 36 37 38 39 39 42 43 43 44 44 41 40 39 38 36 35 35 34 33 34 34 33 33
28 28 28 28 27 27 28 28 29 30 30 31 31 31 33 35 36 37 37 37 36 35 36 37 37 37 38 42 42 44 42 40 39 38 37 36 35 35 34 34 34 34 34 32
27 28 28 28 28 28 27 29 30 31 34 34 35 35 35 34 35 34 35 34 35 36 36 36 37 38 39 40 40 44 40 39 38 37 36 35 35 35 35 35 35 34 33 32
28 29 29 28 27 29 31 31 31 31 33 35 33 33 33 33 33 33 32 31 33 35 36 36 37 38 40 41 40 40 38 37 37 36 35 35 35 35 35 35 34 33 33 33
29 29 29 29 29 29 30 30 30 31 31 32 32 32 32 31 30 30 32 31 33 34 35 36 37 39 39 38 39 38 37 36 36 36 35 34 35 34 33 33 33 33 33 33
29 30 30 30 29 29 31 30 30 30 30 30 30 30 30 30 30 29 29 31 31 32 35 36 36 36 36 37 36 36 35 34 34 33 33 34 33 33 33 33 33 33 33 33
30 30 30 31 31 30 28 30 31 30 30 30 30 30 30 29 29 30 31 31 31 31 32 33 32 32 32 32 32 32 32 32 32 32 32 32 32 33 33 33 33 33 33 33
30 31 31 29 29 29 30 30 29 30 30 30 30 30 30 30 29 30 30 31 31 31 30 31 31 32 32 32 32 32 32 32 32 32 32 32 33 33 33 33 32 32 33 33
31 29 30 30 30 30 30 30 29 29 29 28 29 30 30 31 31 30 30 31 31 31 31 31 31 31 32 32 32 32 32 32 32 33 33 32 32 32 32 32 32 33 33 33
32 31 30 29 28 28 29 29 28 28 29 29 28 30 30 30 30 30 30 30 30 30 31 31 31 31 31 31 31 31 32 32 32 32 32 32 32 32 32 32 32 33 33 33

GFSNGP_sfc_30mbdewp_243.txt.gz
Dewpoint
22 24 28 27 27 28 27 28 25 31 32 30 32 41 43 41 40 33 36 38 44 46 46 48 54 60 60 61 61 62 60 62 63 64 64 63 62 62 61 60 59 56 54 52
23 23 24 24 23 26 24 26 29 28 30 30 41 45 43 41 39 36 29 30 38 44 45 46 52 58 59 60 60 61 61 61 61 62 61 61 60 60 59 58 55 53 51 50
17 22 21 16 22 21 20 21 23 22 26 27 32 33 40 40 39 38 29 27 30 39 45 46 49 58 57 58 59 59 59 58 59 59 59 59 59 58 56 53 52 50 49 48
18 19 12 11 16 19 19 19 22 22 23 22 30 30 34 41 41 37 36 37 33 37 42 46 47 54 57 57 57 57 57 57 57 57 57 57 57 55 53 52 50 49 49 47
17 17 15 15 12 10 14 17 20 20 20 21 21 23 23 37 40 39 39 36 36 31 39 41 46 54 56 56 55 55 55 56 56 56 56 55 54 53 51 49 48 48 43 42
19 17 11 11 13 15 17 11 16 16 17 19 20 22 24 26 29 26 30 28 29 26 34 42 41 54 55 54 54 54 54 54 55 55 54 53 52 50 49 48 47 42 40 39
19 18 18 19 16 15 10 11 20 17 16 20 21 23 22 20 20 19 19 18 24 24 33 34 42 47 53 53 53 53 53 53 54 54 53 52 50 49 48 47 43 41 38 38
21 20 16 20 21 16 19 20 20 20 20 19 21 21 22 19 18 18 18 24 19 20 32 33 36 42 49 52 53 53 52 51 52 53 52 50 49 48 47 44 41 38 36 36
22 20 22 26 21 20 21 21 21 22 23 22 18 18 17 17 18 20 22 27 29 30 33 29 35 40 42 50 51 51 50 50 50 51 50 49 48 47 45 42 40 37 35 34
29 30 28 29 29 27 24 22 22 23 22 22 21 21 20 18 16 18 21 22 28 30 31 30 29 30 31 44 50 49 49 49 49 49 48 48 48 46 44 42 40 37 35 33
23 25 27 27 29 28 27 28 27 26 26 25 24 22 20 19 18 18 19 19 20 23 24 23 23 26 32 39 49 48 48 48 48 48 47 47 47 45 43 42 40 38 36 33
19 22 25 25 27 27 27 26 25 24 24 25 25 22 21 21 22 21 21 20 18 19 22 22 23 26 30 40 48 48 47 47 47 47 47 47 44 42 42 42 41 39 37 34
25 26 28 28 26 25 24 24 24 24 23 22 22 22 22 21 22 23 23 23 21 20 20 22 27 28 39 42 40 47 47 46 46 46 46 45 43 41 39 38 39 39 37 36
26 24 24 24 24 25 26 25 25 25 25 25 25 24 22 22 23 23 23 23 24 25 25 26 28 29 37 38 37 38 47 46 46 45 46 44 42 41 40 37 36 36 37 36
25 25 25 26 27 27 27 27 26 26 26 26 27 27 28 28 26 23 25 25 25 25 24 25 26 26 32 33 36 37 45 45 45 45 45 43 42 40 39 38 37 34 33 34
27 27 27 27 27 28 27 27 27 26 27 27 27 27 27 28 29 29 30 25 25 26 26 26 28 29 30 35 38 39 42 44 44 44 43 41 40 39 38 37 35 33 33 32
26 26 27 27 28 28 28 28 28 27 27 27 28 29 29 30 30 30 30 31 28 26 25 26 27 28 34 36 39 40 42 44 44 43 41 41 39 38 38 36 35 34 34 33
29 28 28 27 27 28 28 28 28 27 27 28 28 29 29 30 30 30 31 32 33 33 33 31 31 34 37 39 39 40 41 42 42 43 41 40 39 38 37 36 35 34 33 33
27 26 27 26 27 28 27 27 27 28 29 29 29 29 29 29 29 30 31 33 34 34 34 35 36 38 38 38 38 39 40 41 41 42 41 39 38 37 36 35 34 34 33 32
27 28 28 28 27 28 27 28 28 28 29 31 31 31 32 32 33 34 34 34 34 36 35 35 35 35 36 36 36 37 38 40 41 42 40 38 37 36 35 34 34 33 33 33
28 29 29 29 28 29 28 29 29 28 29 30 30 30 30 32 33 34 32 31 34 35 35 35 35 35 35 36 36 36 37 39 41 41 38 37 36 35 34 34 33 33 33 33
29 29 29 28 28 28 30 31 31 30 29 29 29 30 30 30 31 31 31 30 32 32 32 32 32 33 34 35 37 37 38 39 41 39 38 36 35 35 34 34 33 33 33 32
29 28 29 29 29 29 29 29 29 30 29 29 28 28 28 29 29 27 26 29 31 31 31 31 32 32 33 34 36 38 39 40 40 38 37 36 35 34 34 33 33 33 32 32
31 28 29 29 29 27 27 29 30 29 29 30 30 30 29 28 28 30 30 31 31 31 31 32 34 34 35 36 36 38 39 38 37 36 36 35 34 34 33 32 32 32 32 32
30 30 30 28 27 27 28 28 29 28 28 28 29 30 30 30 29 30 30 30 31 31 30 31 31 32 32 33 34 34 35 34 34 34 33 33 32 32 32 32 32 32 32 33
29 30 30 30 26 26 28 28 27 28 28 27 27 29 29 30 31 31 31 31 31 30 30 31 31 31 31 31 31 31 31 31 32 32 32 32 32 32 32 32 32 32 32 32
29 31 28 27 28 27 28 29 28 27 28 28 28 29 29 30 30 30 30 30 30 30 30 30 31 31 31 31 31 31 31 31 32 32 32 32 33 33 32 32 32 32 32 32

GFSNGP_sfc_30mbdewp_246.txt.gz
Dewpoint
24 26 27 25 26 26 26 27 25 27 30 32 32 43 43 42 41 40 38 35 36 47 52 57 55 56 56 55 54 54 58 64 64 64 64 64 63 63 63 63 63 62 61 59
21 24 24 25 26 26 25 28 28 28 27 31 33 35 41 41 42 42 40 38 37 36 48 56 58 58 59 59 59 58 59 61 64 65 64 63 63 62 62 62 61 60 58 56
16 22 20 14 20 22 22 25 25 25 26 33 32 34 33 39 41 42 41 40 38 37 35 50 57 59 59 60 60 60 59 61 61 62 63 62 62 61 61 60 58 57 56 54
19 19 6 10 18 17 19 23 22 25 31 33 30 31 31 43 40 40 42 41 41 35 31 37 54 56 57 58 58 58 59 59 60 60 60 60 60 60 59 57 56 54 53 53
18 16 14 14 13 11 15 15 22 22 26 30 29 32 30 41 41 41 41 43 42 40 33 30 46 57 56 56 56 56 56 57 57 58 58 58 58 58 56 55 54 52 51 49
19 16 11 13 18 17 17 10 21 20 20 21 26 22 28 33 40 41 41 41 42 41 39 30 33 55 55 54 54 54 55 56 56 56 56 56 56 54 53 52 51 50 48 47
19 18 18 19 18 21 11 12 20 20 19 20 22 24 27 24 31 37 39 38 41 40 40 40 33 52 54 54 53 54 54 55 55 55 55 54 52 51 50 48 45 44 44 44
20 18 14 23 25 21 22 22 21 20 21 20 21 23 24 23 19 18 21 27 34 36 39 38 37 41 51 52 53 53 53 53 54 54 53 52 50 49 47 45 43 41 40 40
20 19 29 32 31 31 31 26 23 22 22 23 21 20 20 18 17 18 19 22 25 30 31 34 31 27 29 35 51 52 52 52 52 53 52 51 49 48 45 44 42 40 40 38
26 26 28 27 30 33 31 29 27 27 25 25 23 24 23 22 21 18 18 19 22 23 25 26 25 25 26 29 48 51 51 50 51 51 50 49 49 47 44 42 40 38 38 36
21 22 25 27 30 30 31 30 27 27 26 24 25 24 24 22 21 21 21 21 21 22 21 22 23 22 26 37 48 50 50 49 49 50 49 48 48 46 44 43 41 39 38 37
20 22 24 24 26 30 27 25 25 25 24 24 23 23 23 22 22 22 22 22 22 22 22 22 23 23 31 40 47 48 48 48 48 48 48 48 45 44 43 43 41 40 39 37
25 25 26 28 28 27 27 27 28 26 26 25 26 26 26 26 26 26 24 23 23 22 23 24 25 28 37 38 43 47 48 47 47 47 47 46 44 43 40 38 40 39 37 36
22 27 25 26 25 28 28 27 27 27 27 26 27 27 28 28 28 28 28 29 28 26 25 24 25 27 35 40 37 39 44 46 46 46 46 46 44 43 42 38 36 34 35 35
28 28 27 28 28 28 29 29 28 28 27 27 28 28 28 28 28 28 28 30 30 29 29 27 24 24 28 36 33 33 38 44 45 45 46 45 44 43 41 39 37 34 33 34
28 29 28 28 28 28 28 27 27 27 27 27 27 27 27 27 28 29 29 29 29 29 30 29 28 28 28 29 31 32 36 39 44 44 44 43 42 41 39 38 36 34 33 32
27 26 27 27 26 27 27 27 28 27 26 26 27 27 28 28 28 28 27 30 31 31 31 30 30 31 30 31 31 33 36 38 43 43 43 42 41 40 39 38 36 34 34 33
27 27 26 26 25 26 26 27 27 27 27 27 27 27 27 27 26 27 28 29 29 30 31 31 32 32 31 32 34 35 36 38 41 42 42 41 40 40 39 38 36 35 34 33
26 26 28 27 27 27 27 27 27 27 27 27 27 27 28 29 30 29 31 31 30 29 30 32 32 33 33 33 35 36 38 40 41 41 41 40 39 39 39 38 36 35 34 32
26 27 28 29 29 28 28 28 28 27 27 27 26 26 26 27 29 31 32 31 32 33 34 33 33 33 34 35 36 37 38 39 39 40 40 40 39 39 38 37 36 35 33 32
27 27 28 29 27 27 28 28 29 29 28 27 27 27 26 26 28 29 29 29 33 36 35 35 35 35 34 34 35 36 37 37 38 39 40 40 38 38 37 36 35 34 33 32
28 28 28 28 28 27 28 28 28 27 27 27 28 28 27 26 26 27 28 28 30 31 33 33 33 33 34 34 34 35 35 35 36 38 40 39 38 37 36 36 35 34 33 33
27 28 28 28 27 27 26 26 27 28 28 27 27 28 28 28 28 26 25 26 28 29 29 29 30 30 30 31 31 33 35 35 35 36 39 38 38 37 36 35 34 33 33 33
26 28 29 27 27 25 25 26 27 27 27 27 27 28 28 28 28 29 30 31 31 30 30 29 29 30 29 31 31 31 33 34 35 36 39 38 38 37 36 35 34 33 33 32
25 29 29 29 27 25 26 27 27 26 27 27 27 28 29 30 29 29 30 30 31 30 30 31 31 31 31 32 32 32 33 34 35 37 38 36 36 35 35 34 33 33 32 32
28 29 30 28 28 28 26 27 26 26 26 26 26 27 29 30 30 30 30 31 31 30 30 30 31 31 31 31 33 34 34 35 37 37 36 36 35 34 33 33 32 32 32 32
27 27 29 25 25 28 27 27 26 26 27 27 26 27 28 29 29 29 30 30 30 30 30 30 30 30 31 31 31 31 31 33 34 34 34 33 33 32 32 32 32 32 32 32